Home   Weather   Pago Pago   Past weeks

Flag for American Samoa Past Weather in Pago Pago, American Samoa — Yesterday and Last 2 Weeks

Now
82 °F

Sprinkles. Cloudy.


Feels Like: 90 °F
Forecast: 81 / 85 °F
Wind: 20 mph from North

Location: Pago Pago / Int. Airp.

Current Time: Feb 21, 2017 at 12:48:33 pm

Latest Report: Feb 21, 2017 at 11:52 am


Visibility: 10 mi

Pressure: 29.85 "Hg

Humidity: 88%

Dew Point: 78 °F

Location of Pago PagoLocation

Past Weather in Pago Pago — Graph

°F

Pago Pago Temperature Yesterday

Maximum temperature yesterday: 89 °F (at 12:51 pm)
Minimum temperature yesterday: 77 °F (at 9:33 pm)
Average temperature yesterday: 83 °F

High & Low Weather Summary for the Past Weeks

 TemperatureHumidityPressure
High90 °F (Feb 13, 11:50 am)100% (Feb 6, 11:50 pm)29.94 "Hg (Feb 6, 11:50 pm)
Low75 °F (Feb 7, 5:50 am)70% (Feb 11, 2:52 pm)29.66 "Hg (Feb 18, 2:52 pm)
Average82 °F88%29.81 "Hg
* Reported Feb 6 10:51 am — Feb 21 10:52 am, Pago Pago, Weather by CustomWeather, © 2017

Note: Actual official high and low records may vary slightly from our data, if they occured in-between our weather recording intervals... More about our weather records

Advertising

Pago Pago Weather History for the Previous 24 Hours

Scroll right to see more
 ConditionsComfort  
Time TempWeatherWind HumidityBarometerVisibility
10:52 am
Tue, Feb 21
83 °FCloudy.13 mph89%29.85 "Hg10 mi
9:50 am80 °FSprinkles. Cloudy.12 mph93%29.85 "Hg8 mi
9:28 am79 °FSprinkles. Cloudy.8 mph94%29.85 "Hg6 mi
8:50 am84 °FCloudy.9 mph84%29.85 "Hg12 mi
7:50 am84 °FMostly cloudy.13 mph84%29.83 "Hg12 mi
6:50 am82 °FMostly cloudy.12 mph89%29.82 "Hg12 mi
5:56 am82 °FPartly cloudy.13 mph89%29.80 "Hg11 mi
4:54 am82 °FPartly cloudy.9 mph87%29.80 "Hg10 mi
3:52 am82 °FPartly cloudy.12 mph87%29.79 "Hg10 mi
2:50 am82 °FPartly cloudy.8 mph89%29.79 "Hg10 mi
1:50 am82 °FPartly cloudy.5 mph90%29.82 "Hg10 mi
12:50 am80 °FPartly cloudy.No wind96%29.83 "Hg10 mi
11:50 pm
Mon, Feb 20
79 °FPartly cloudy.No wind100%29.85 "Hg10 mi
10:50 pm79 °FSprinkles. Partly cloudy.No wind94%29.86 "Hg10 mi
9:50 pm78 °FSprinkles. Overcast.No wind94%29.86 "Hg5 mi
9:33 pm77 °FRain showers. Mostly cloudy.7 mph94%29.87 "Hg2 mi
7:56 pm83 °FPartly cloudy.7 mph87%29.82 "Hg10 mi
6:50 pm83 °FBroken clouds.8 mph83%29.79 "Hg12 mi
5:51 pm84 °FBroken clouds.3 mph84%29.78 "Hg12 mi
4:50 pm82 °FBroken clouds.No wind89%29.77 "Hg12 mi
3:55 pm81 °FBroken clouds.7 mph84%29.78 "Hg12 mi
2:54 pm83 °FBroken clouds.10 mph87%29.78 "Hg11 mi
1:53 pm88 °FBroken clouds.12 mph77%29.77 "Hg11 mi
12:51 pm89 °FBroken clouds.9 mph75%29.78 "Hg11 mi
Weather by CustomWeather, © 2017

See weather overviewHow to use our weather pages